Погода в Куцунарях

Греция     35°00′54″N   25°49′42″E
темп.,
°C
ветер,
м/с
пор.,
м/с
влажн.,
%
обл.,
%
осадки,
мм/ч
давл.,
гПа
погр.,
м
16 апреля, пт
пт1600:00+16с2276100 0.0 101637
03:00+15с22805 0.0 101554
06:00+15с12791 0.0 101554
09:00+16юв01715 0.0 101682
12:00+18юв22655 0.0 1016258
15:00+18юв2264100 0.0 1015278
18:00+18вюв3366100 0.0 1014160
21:00+16в3474100 0.1 101470
17 апреля, сб
сб1700:00+17вюв3568100 0.0 101385
03:00+16всв3570100 0.0 1011116
06:00+16в2470100 0.0 101159
09:00+18вюв3571100 0.0 1012144
12:00+18вюв467599 0.0 1013289
15:00+19вюв2469100 0.0 1011245
18:00+19вюв3462100 0.0 101149
21:00+18всв4766100 0.0 101180
18 апреля, вс
вс1800:00+18всв3668100 0.0 101280
03:00+19всв2359100 0.0 101318
06:00+20в3354100 0.0 101220
09:00+19св4464100 0.0 101362
12:00+20вюв5668100 0.0 1013250
15:00+20в456799 0.0 1012300
18:00+20всв4570100 0.0 101281
21:00+19св4569100 0.0 101253
19 апреля, пн
пн1900:00+18ссв3372100 0.0 101243
03:00+17ссз4478100 0.0 101170
06:00+17с3477100 0.0 101161
09:00+18с2373100 0.0 1012177
12:00+19всв22723 0.0 1012259
15:00+18юз447027 0.0 1012509
18:00+18з356338 0.0 1012365
21:00+15з567258 0.0 1014224
20 апреля, вт
вт2000:00+14сз347594 0.0 1015192
03:00+14ссз1172100 0.0 1015129
06:00+13с22730 0.0 1015106
09:00+15ююз22620 0.0 1017363
12:00+16ююз33610 0.0 1018563
15:00+17ююз326219 0.0 1017707
18:00+16ююз226420 0.0 1017525
21:00+15вюв11731 0.0 1018135